Location: Alsip
(41.6689°N, 87.7387°W)
Time: 14:26:42
(UTC+00:00)

Cosmos 1500 - Pass Details

Date: 14 July 2020
Orbit: 498 x 521 km, 82.5° (Epoch: 04 August)

Event Time Altitude Azimuth Distance (km) Brightness Sun altitude
Exits shadow 07:17:58 48° 78° (ENE) 674 3.9 -24.0°
Drops below altitude 10° 07:21:23 10° 19° (NNE) 1,734 7.0 -23.8°
Sets 07:23:33 0° 14° (NNE) 2,621 8.2 -23.6°
